{"data":{"norad_id":48074,"epoch":"2026-05-25T00:23:05.175168Z","epoch_age_seconds":70286,"freshness":"FRESH","line1":"1 48074U 21025AJ  26145.01603212  .00000203  00000+0  52092-3 0  9991","line2":"2 48074  87.8944 324.8373 0001794  99.5289 260.6043 13.13469994250634","mean_motion":13.13469994,"eccentricity":0.0001794,"inclination_deg":87.8944,"raan_deg":324.8373,"arg_perigee_deg":99.5289,"mean_anomaly_deg":260.6043,"bstar":0.00052092,"rev_number":25063,"period_min":109.63326201421,"perigee_km":1208.4041533135,"apogee_km":1211.1266927029,"semimajor_km":7587.9024230082,"source":"CELESTRAK","updated_at":"2026-05-25T13:38:22.394706Z"}}